EW1326 Weather Reports


time (UTC)temp
C
wind
direction
speed
KPH
gust
KPH
rain 1hr
cm
rain 24hr
cm
rain mn
cm
humidity
%
barometer
mb
20260506050904 17 226 4.8 12.9 0.00 0.66 0.28 51 1017.3
20260506044831 17 259 4.8 11.3 0.00 0.69 0.28 50 1016.9
20260506043830 17 259 1.6 12.9 0.00 0.69 0.28 47 1016.9
20260506042829 17 259 4.8 12.9 0.00 0.69 0.28 47 1016.9
20260506041828 17 259 0.0 9.7 0.00 0.71 0.28 47 1016.6
20260506040827 17 259 0.0 6.4 0.00 0.71 0.28 47 1016.6
20260506035756 18 259 0.0 9.7 0.00 0.71 0.28 42 1016.3
20260506034724 18 259 0.0 6.4 0.00 0.71 0.28 42 1016.3
20260506033723 18 259 0.0 9.7 0.00 0.71 0.28 40 1016.3
20260506032722 18 259 3.2 11.3 0.00 0.71 0.28 38 1015.9
20260506031721 18 259 4.8 16.1 0.00 0.71 0.28 38 1015.9
20260506030720 19 257 3.2 16.1 0.00 0.71 0.28 36 1015.6
20260506025719 19 259 3.2 14.5 0.00 0.74 0.28 36 1015.6
20260506024718 19 260 6.4 17.7 0.00 0.79 0.28 36 1015.6
20260506023718 19 280 6.4 17.7 0.00 0.81 0.28 36 1015.2
20260506022717 20 262 6.4 17.7 0.00 0.84 0.28 36 1015.2
20260506021716 20 275 4.8 19.3 0.00 0.86 0.28 36 1014.9
20260506020715 20 268 6.4 22.5 0.00 0.86 0.28 36 1014.6
20260506015714 21 260 9.7 27.4 0.00 0.89 0.28 35 1014.6
20260506014712 21 264 8.0 27.4 0.00 0.94 0.28 35 1014.6
20260506013641 21 260 9.7 27.4 0.00 0.97 0.28 33 1014.2
20260506012537 22 254 6.4 24.1 0.00 0.99 0.28 33 1014.2
20260506011536 22 257 11.3 24.1 0.00 0.99 0.28 29 1014.2
20260506010535 23 244 11.3 24.1 0.00 1.02 0.28 29 1013.9
20260506005534 23 249 9.7 25.7 0.00 1.04 0.28 29 1013.9
20260506004533 23 239 12.9 25.7 0.00 1.04 0.28 29 1013.9
20260506003532 23 242 11.3 30.6 0.00 1.07 0.28 29 1013.5
20260506002531 23 247 12.9 29.0 0.00 1.07 0.28 30 1013.5
20260506001530 24 240 12.9 24.1 0.00 1.07 0.28 30 1013.5
20260506000426 23 247 9.7 25.7 0.00 1.07 0.28 31 1013.5
20260505235425 23 271 9.7 25.7 0.00 1.07 0.28 30 1013.5
20260505234424 23 225 8.0 30.6 0.00 1.07 0.28 30 1013.5
20260505233423 23 215 12.9 30.6 0.00 1.07 0.28 29 1013.5
20260505232422 23 210 16.1 27.4 0.00 1.07 0.28 29 1013.5
20260505231421 24 225 14.5 30.6 0.00 1.07 0.28 28 1013.5
20260505230349 23 222 11.3 30.6 0.00 1.07 0.28 28 1013.5
20260505225348 23 227 11.3 27.4 0.00 1.07 0.28 30 1013.5
20260505224316 24 205 11.3 30.6 0.00 1.07 0.28 29 1013.5
20260505223243 25 215 11.3 27.4 0.00 1.07 0.28 29 1013.5
20260505222242 25 230 14.5 27.4 0.00 1.07 0.28 28 1013.5
20260505221241 24 231 17.7 38.6 0.00 1.07 0.28 29 1013.9
20260505220241 24 247 14.5 40.2 0.00 1.07 0.28 31 1013.9
20260505215239 24 244 16.1 41.8 0.00 1.07 0.28 32 1013.9
20260505214207 24 241 17.7 35.4 0.00 1.07 0.28 31 1014.2
20260505213206 24 236 20.9 38.6 0.00 1.07 0.28 33 1014.2
20260505212205 23 232 11.3 38.6 0.00 1.07 0.28 37 1014.2
20260505211133 22 250 11.3 29.0 0.00 1.07 0.28 39 1014.2
20260505210132 24 276 12.9 33.8 0.00 1.07 0.28 37 1014.2
20260505205131 22 257 14.5 33.8 0.00 1.07 0.28 40 1014.2
20260505204129 22 246 9.7 29.0 0.00 1.07 0.28 42 1014.2
20260505203129 21 221 6.4 17.7 0.00 1.07 0.28 50 1014.2
20260505202057 21 306 6.4 17.7 0.00 1.07 0.28 52 1014.6
20260505201056 21 265 3.2 14.5 0.00 1.07 0.28 54 1014.6
20260505200055 22 261 6.4 17.7 0.00 1.07 0.28 51 1014.9
20260505195055 21 256 8.0 17.7 0.00 1.07 0.28 51 1014.9
20260505194054 21 309 4.8 16.1 0.00 1.07 0.28 53 1014.6
20260505192950 21 250 6.4 16.1 0.00 1.07 0.28 52 1014.9
20260505191950 22 282 6.4 17.7 0.00 1.07 0.28 51 1014.9
20260505190949 22 295 9.7 16.1 0.00 1.07 0.28 52 1015.2
20260505185948 21 264 8.0 16.1 0.00 1.07 0.28 58 1015.2
20260505184947 20 270 4.8 12.9 0.00 1.07 0.28 62 1015.6
20260505183946 21 256 6.4 12.9 0.00 1.07 0.28 57 1015.6
20260505182945 21 241 4.8 11.3 0.00 1.07 0.28 61 1015.6
20260505181944 20 241 4.8 8.0 0.00 1.07 0.28 61 1015.9
20260505180943 19 241 0.0 12.9 0.00 1.07 0.28 66 1015.9
20260505175942 20 238 6.4 12.9 0.00 1.07 0.28 62 1015.9
20260505174942 19 77 0.0 0.0 0.00 1.07 0.28 63 1015.9
20260505173941 20 80 0.0 0.0 0.00 1.07 0.28 68 1015.9
20260505172939 18 263 0.0 0.0 0.00 1.07 0.28 70 1015.9
20260505171938 18 263 0.0 0.0 0.00 1.07 0.28 70 1015.9
20260505170937 18 263 0.0 0.0 0.00 1.07 0.28 74 1015.9
20260505165936 18 263 0.0 0.0 0.00 1.07 0.28 74 1015.9
20260505164935 17 263 0.0 0.0 0.00 1.07 0.28 75 1015.9
20260505163935 17 263 0.0 0.0 0.00 1.07 0.28 77 1015.9
20260505162903 17 263 0.0 0.0 0.00 1.07 0.28 80 1015.9
20260505161902 17 263 0.0 0.0 0.00 1.07 0.28 84 1015.9
20260505160901 16 263 0.0 0.0 0.00 1.07 0.28 85 1015.9
20260505152858 16 300 0.0 0.0 0.00 1.07 0.28 92 1015.6
20260505151857 15 300 0.0 0.0 0.00 1.07 0.28 93 1015.6
20260505150856 15 300 0.0 0.0 0.00 1.07 0.28 94 1015.6
20260505124608 14 291 0.0 0.0 0.03 1.07 0.28 95 1014.6
20260505123607 14 291 0.0 0.0 0.03 1.07 0.28 95 1014.6
20260505122606 14 291 0.0 0.0 0.05 1.07 0.28 94 1014.2
20260505121605 14 312 0.0 0.0 0.03 1.04 0.25 94 1014.2
20260505120604 14 312 0.0 0.0 0.03 1.04 0.25 94 1013.9
20260505115532 14 312 0.0 0.0 0.05 1.04 0.25 94 1013.9
20260505114531 14 312 0.0 0.0 0.05 1.04 0.25 94 1013.9
20260505113530 14 312 0.0 0.0 0.05 1.04 0.25 94 1013.9
20260505112529 14 312 0.0 0.0 0.05 1.02 0.23 94 1014.2
20260505111528 14 312 0.0 0.0 0.08 1.02 0.23 94 1013.9
20260505110527 14 312 0.0 0.0 0.08 1.02 0.23 94 1014.6
20260505101421 14 213 0.0 0.0 0.08 0.94 0.15 94 1015.2
20260505100420 14 209 0.0 0.0 0.10 0.94 0.15 94 1015.2
20260505095419 14 209 0.0 0.0 0.10 0.94 0.15 94 1015.2
20260505094418 14 40 0.0 0.0 0.10 0.91 0.13 94 1015.2
20260505093418 14 40 0.0 0.0 0.13 0.91 0.13 94 1015.6
20260505092415 14 40 0.0 0.0 0.13 0.89 0.10 94 1015.9
20260505091414 14 40 0.0 6.4 0.13 0.86 0.08 94 1015.9
20260505090413 14 39 0.0 6.4 0.13 0.84 0.05 94 1016.3
20260505085412 14 67 0.0 6.4 0.15 0.84 0.05 94 1016.6
20260505084411 14 67 0.0 6.4 0.13 0.79 0.00 94 1016.9
20260505083339 14 67 0.0 0.0 0.13 0.76 0.76 94 1017.3
20260505082338 14 67 0.0 0.0 0.15 0.76 0.76 94 1017.3
20260505081337 14 67 0.0 0.0 0.15 0.74 0.74 94 1017.6
20260505080336 15 67 0.0 0.0 0.13 0.71 0.71 94 1017.6
20260505075335 15 67 0.0 0.0 0.10 0.69 0.69 94 1017.9
20260505074334 15 67 0.0 0.0 0.10 0.66 0.66 94 1017.9
20260505073333 15 67 0.0 0.0 0.10 0.64 0.64 94 1017.9
20260505072332 15 67 0.0 0.0 0.10 0.61 0.61 93 1017.9
20260505071332 15 67 0.0 0.0 0.10 0.58 0.58 93 1017.6
20260505070331 15 67 0.0 0.0 0.13 0.58 0.58 93 1017.6
20260505065330 15 67 0.0 0.0 0.15 0.58 0.58 93 1017.6
20260505064257 15 67 0.0 0.0 0.13 0.56 0.56 93 1017.6
20260505063257 15 67 0.0 0.0 0.10 0.53 0.53 93 1017.6
20260505062256 15 67 0.0 0.0 0.10 0.51 0.51 93 1017.6
20260505061254 15 67 0.0 0.0 0.08 0.48 0.48 93 1017.6
20260505060254 14 67 0.0 0.0 0.08 0.46 0.46 93 1017.6